Wind_Speed
15 16 17 17 17 17 18 18 18 18 18 19 20 21 21 21 22 23 23 23 24 25 27 27 29 30 29 30 31 31 31 31 32 32 32 32 33 33
16 16 17 17 17 18 18 18 19 19 19 20 21 22 22 22 23 23 25 26 27 28 29 29 30 30 31 32 31 31 32 33 33 34 34 35 35 36
16 16 17 18 17 18 18 19 19 20 21 22 23 23 24 24 24 25 26 27 28 29 30 30 31 32 31 32 32 32 32 33 34 35 36 36 37 37
17 16 17 17 18 19 20 20 21 21 22 23 24 25 25 26 26 27 28 28 29 30 30 31 32 32 32 32 32 33 34 35 35 36 37 37 36 37
18 18 18 19 20 21 21 22 22 23 23 24 25 26 27 27 28 29 29 30 31 32 32 33 33 32 33 33 34 34 34 36 36 36 37 38 38 39
19 19 19 20 21 21 21 22 24 24 25 26 26 27 28 28 29 30 30 31 32 32 33 33 33 34 34 34 35 35 36 37 37 38 38 38 39 39
19 20 21 21 22 22 23 24 25 26 26 27 27 28 28 29 30 31 32 32 33 33 34 34 35 35 36 36 36 37 37 38 38 39 39 39 40 41
20 20 21 22 23 23 24 25 25 26 27 28 28 28 29 30 31 32 32 33 34 34 34 35 35 36 36 37 37 38 38 39 40 40 40 39 40 41
20 21 21 22 23 24 24 25 26 26 27 29 29 30 31 32 32 33 33 34 34 34 35 35 36 36 37 38 38 39 39 40 40 40 39 40 40 40
20 21 22 23 24 25 26 26 26 27 28 29 30 32 32 32 32 33 34 34 34 35 35 36 37 37 38 38 39 39 39 39 40 40 40 40 40 40
22 22 23 24 25 25 26 27 27 28 28 29 30 31 32 32 33 33 34 34 34 35 35 36 37 37 38 37 38 39 39 39 39 39 39 39 39 39
23 24 25 25 26 27 27 27 28 28 29 30 31 31 31 32 32 33 34 34 35 35 35 36 36 36 36 36 37 37 38 38 38 38 38 38 38 38
24 25 26 27 27 27 28 28 29 29 30 31 32 32 33 33 33 33 34 34 34 34 35 35 35 35 36 36 36 36 36 36 36 36 36 36 36 37
26 27 28 28 28 28 29 30 30 30 32 33 33 33 33 33 33 34 34 34 34 34 34 34 34 34 34 34 34 34 34 35 35 35 35 36 35 35
27 27 28 29 29 30 30 31 31 31 32 33 33 33 33 33 34 34 34 34 34 33 33 33 34 34 34 34 34 34 34 34 34 34 34 34 33 33
28 29 29 30 30 31 31 31 31 32 32 33 33 33 34 34 33 33 32 32 33 33 33 33 33 33 32 32 32 32 32 32 32 32 32 31 31 32
29 29 30 31 31 31 31 31 31 32 32 33 33 33 33 33 32 31 31 31 32 32 32 32 31 31 30 30 29 29 29 30 30 29 30 30 31 31
30 30 30 31 30 31 30 31 31 32 33 33 33 32 31 30 30 30 31 31 31 31 30 30 29 29 28 28 28 28 28 28 29 29 29 29 30 30
30 31 31 30 30 30 30 31 32 32 32 32 32 31 30 29 29 30 30 29 28 28 27 28 27 26 26 26 27 27 28 28 28 28 29 29 28 28
31 31 31 30 29 29 30 30 31 31 31 31 30 30 29 29 29 29 29 28 27 27 26 26 26 26 26 26 27 27 27 27 28 28 28 28 28 28
31 31 31 30 29 30 30 30 31 31 30 30 30 30 29 29 29 28 28 27 27 27 26 26 26 25 25 26 26 26 27 27 28 28 27 27 27 27
31 31 31 30 30 30 30 30 31 31 30 30 30 29 29 29 29 28 28 27 26 26 26 26 26 26 26 26 26 27 27 28 28 28 27 27 26 26
30 30 30 30 30 30 30 30 30 30 30 30 29 29 29 29 28 28 27 27 26 26 26 26 26 27 27 27 27 27 27 27 27 27 27 27 27 26
Wind_Direction
271 272 272 272 272 273 274 276 277 274 275 276 279 281 282 283 283 285 285 284 284 283 283 284 284 282 281 281 280 279 278 278 278 278 279 278 276 274
275 276 273 274 276 276 277 278 278 279 277 276 280 282 282 284 284 285 284 284 284 283 283 284 283 282 281 282 280 279 278 277 278 277 278 278 278 277
278 276 275 277 278 280 278 280 280 281 281 280 281 283 283 285 284 286 286 284 285 284 284 284 282 282 283 284 282 281 281 280 280 278 278 279 278 277
285 282 279 282 280 280 280 281 283 284 283 284 284 285 286 287 288 288 288 286 286 287 286 285 284 284 284 284 284 282 282 282 282 281 281 280 279 277
284 283 283 283 283 281 281 281 282 284 285 287 286 287 288 289 289 289 289 287 287 287 286 285 286 286 286 284 285 284 284 284 283 283 282 281 281 279
285 283 284 284 284 283 281 282 282 284 286 287 288 288 288 288 288 288 288 287 287 287 286 284 284 285 286 285 285 286 286 285 283 282 282 281 282 281
284 284 285 286 285 284 283 283 284 285 286 287 289 289 288 287 288 288 288 287 287 287 287 285 285 285 285 285 285 286 285 284 283 283 284 282 282 281
287 286 288 287 285 285 285 286 286 286 286 287 288 288 289 289 288 289 289 287 287 288 287 287 287 286 286 285 285 285 284 284 284 284 284 283 283 282
291 289 289 289 289 290 290 289 289 288 288 289 290 289 290 291 290 290 289 288 288 288 288 288 287 286 285 285 285 285 285 285 285 285 284 284 283 283
294 292 290 290 291 292 291 290 290 290 290 289 290 290 291 291 290 289 288 287 289 289 289 288 288 287 286 286 286 286 287 287 286 286 286 285 285 285
295 293 293 293 293 293 293 294 293 293 292 291 291 292 292 292 290 290 289 288 289 290 290 290 289 289 289 288 288 288 288 288 288 288 287 287 287 288
296 295 295 295 295 294 295 296 295 295 294 294 293 293 293 293 292 292 292 292 292 292 292 292 292 291 291 291 290 289 290 289 288 288 289 289 289 290
295 295 295 296 295 295 295 296 296 295 295 295 295 294 294 294 294 294 293 293 294 293 293 292 292 292 292 292 292 292 292 292 291 291 290 291 292 293
296 296 296 296 296 296 295 295 296 296 295 295 296 296 296 296 296 296 295 295 295 295 294 293 293 293 294 293 293 293 294 293 292 291 292 293 293 293
298 298 298 298 297 296 296 296 296 297 296 296 296 297 297 297 296 296 296 296 295 295 294 294 294 295 295 294 294 293 293 293 293 294 294 294 294 294
297 297 297 298 297 297 296 295 296 296 296 297 297 298 299 299 297 297 297 298 297 296 295 296 296 296 295 295 294 294 294 294 295 295 296 295 296 297
299 298 297 297 297 296 296 296 297 297 299 300 300 300 300 299 299 298 298 298 298 297 297 297 297 297 297 297 296 296 297 297 297 297 297 298 299 300
299 299 299 298 297 297 297 297 298 299 299 300 300 301 300 300 300 300 301 301 300 300 298 298 299 299 299 298 298 298 298 298 299 300 300 301 301 301
298 299 298 298 297 297 297 297 298 299 300 301 301 301 300 300 301 302 302 302 302 302 301 300 300 300 300 300 299 299 299 300 300 301 302 302 302 302
298 298 298 298 298 298 299 299 300 301 302 302 302 302 302 302 302 303 302 301 301 300 300 301 302 301 300 300 299 299 300 301 302 302 303 304 304 304
298 297 297 297 298 298 299 300 302 302 303 303 303 302 303 303 303 302 301 300 300 299 300 301 302 302 301 300 299 299 301 302 303 303 303 304 304 303
297 297 297 297 298 298 299 300 301 302 302 303 303 303 302 302 302 301 300 300 300 299 299 300 301 301 301 301 301 301 302 303 303 304 304 304 304 303
298 297 296 297 298 299 300 301 301 302 303 304 303 302 302 302 301 300 299 299 299 299 300 300 301 301 302 302 302 302 302 303 303 303 304 304 305 305
Height
5887 5886 5886 5885 5885 5884 5883 5882 5882 5881 5880 5878 5877 5875 5873 5872 5870 5868 5866 5864 5863 5861 5859 5857 5855 5853 5851 5850 5848 5847 5845 5843 5841 5840 5838 5837 5835 5834
5883 5882 5882 5881 5880 5879 5878 5877 5876 5875 5874 5873 5871 5869 5867 5866 5864 5862 5860 5858 5857 5854 5852 5850 5848 5845 5843 5842 5840 5838 5836 5835 5833 5831 5829 5828 5826 5824
5878 5878 5877 5876 5875 5874 5873 5872 5871 5870 5868 5867 5865 5863 5861 5860 5858 5856 5853 5851 5849 5847 5845 5842 5840 5837 5835 5833 5831 5829 5827 5825 5823 5821 5820 5818 5816 5814
5874 5873 5872 5871 5871 5869 5868 5867 5866 5864 5863 5861 5859 5857 5855 5853 5851 5848 5846 5843 5841 5839 5836 5834 5831 5829 5827 5824 5822 5820 5818 5816 5814 5812 5810 5808 5806 5804
5869 5868 5867 5866 5865 5864 5863 5861 5860 5858 5856 5854 5852 5850 5848 5846 5844 5841 5838 5836 5833 5830 5828 5825 5823 5820 5818 5816 5813 5811 5809 5807 5804 5802 5799 5797 5795 5793
5864 5863 5862 5861 5859 5858 5857 5855 5854 5852 5850 5848 5846 5843 5841 5838 5836 5833 5830 5828 5825 5822 5819 5817 5814 5811 5809 5806 5804 5801 5799 5796 5794 5791 5789 5786 5784 5782
5859 5858 5857 5855 5853 5852 5850 5849 5847 5845 5843 5841 5838 5836 5833 5830 5828 5825 5822 5819 5816 5813 5810 5807 5805 5802 5799 5797 5794 5791 5789 5786 5783 5780 5778 5775 5773 5770
5854 5852 5850 5849 5847 5845 5843 5841 5840 5838 5835 5833 5831 5828 5825 5823 5820 5816 5813 5810 5807 5804 5801 5798 5795 5792 5789 5786 5784 5781 5778 5775 5772 5769 5766 5764 5761 5759
5848 5846 5844 5842 5840 5838 5836 5834 5832 5830 5828 5825 5823 5820 5817 5814 5811 5807 5804 5801 5798 5795 5791 5788 5785 5782 5779 5776 5773 5770 5767 5764 5761 5758 5755 5752 5749 5747
5842 5840 5838 5836 5834 5831 5829 5827 5824 5822 5819 5817 5814 5811 5808 5804 5801 5798 5795 5791 5788 5785 5782 5778 5775 5772 5768 5765 5762 5759 5756 5753 5750 5747 5744 5741 5738 5735
5836 5833 5831 5829 5827 5824 5822 5819 5816 5814 5811 5807 5804 5801 5798 5795 5792 5788 5785 5782 5778 5775 5772 5768 5764 5761 5758 5754 5751 5748 5745 5742 5739 5735 5732 5729 5726 5723
5829 5826 5824 5821 5819 5816 5814 5811 5808 5805 5802 5799 5796 5792 5789 5786 5782 5779 5775 5772 5769 5765 5762 5758 5754 5751 5747 5744 5741 5737 5734 5731 5727 5724 5721 5718 5715 5712
5822 5819 5816 5814 5811 5808 5805 5802 5799 5796 5793 5790 5786 5783 5780 5776 5773 5769 5766 5763 5759 5755 5752 5748 5745 5741 5737 5734 5730 5727 5724 5720 5717 5714 5710 5707 5704 5701
5814 5812 5809 5806 5803 5800 5797 5794 5791 5788 5784 5781 5778 5774 5770 5767 5763 5760 5756 5753 5749 5746 5742 5739 5735 5732 5728 5724 5721 5717 5714 5710 5707 5704 5701 5697 5694 5691
5807 5804 5801 5798 5795 5792 5789 5785 5782 5779 5775 5772 5768 5765 5761 5757 5754 5750 5747 5743 5739 5736 5733 5729 5726 5722 5719 5715 5711 5708 5705 5701 5698 5695 5691 5688 5685 5681
5799 5796 5793 5790 5786 5783 5780 5776 5773 5769 5766 5762 5759 5755 5751 5748 5744 5741 5737 5734 5730 5727 5723 5720 5716 5713 5709 5705 5702 5698 5695 5692 5689 5686 5682 5679 5676 5672
5791 5788 5784 5781 5778 5774 5771 5767 5764 5760 5757 5753 5750 5746 5742 5739 5735 5731 5728 5725 5721 5718 5714 5710 5707 5703 5700 5697 5693 5690 5687 5683 5680 5677 5674 5670 5667 5663
5782 5779 5776 5772 5769 5766 5762 5759 5755 5752 5748 5745 5741 5737 5733 5730 5726 5723 5719 5716 5712 5709 5705 5702 5698 5695 5692 5688 5686 5682 5679 5676 5673 5669 5666 5662 5659 5655
5774 5771 5767 5764 5760 5757 5754 5750 5747 5743 5740 5736 5732 5728 5725 5721 5718 5714 5711 5707 5704 5700 5697 5694 5691 5687 5684 5681 5678 5675 5672 5668 5665 5662 5658 5655 5651 5648
5766 5762 5759 5755 5752 5749 5745 5742 5738 5735 5731 5727 5724 5720 5716 5713 5710 5706 5703 5699 5696 5693 5690 5686 5683 5680 5677 5674 5671 5668 5664 5661 5658 5654 5651 5647 5644 5640
5757 5754 5751 5747 5744 5741 5737 5734 5730 5726 5723 5719 5716 5712 5709 5705 5702 5698 5695 5692 5689 5685 5682 5679 5676 5673 5670 5667 5664 5660 5657 5653 5650 5647 5643 5640 5637 5634
5749 5745 5742 5739 5736 5732 5729 5726 5722 5718 5715 5711 5708 5704 5701 5697 5694 5691 5687 5684 5681 5678 5675 5672 5669 5666 5663 5660 5656 5653 5649 5646 5642 5639 5636 5633 5630 5626
5740 5737 5734 5731 5727 5724 5721 5717 5714 5710 5706 5703 5699 5696 5693 5689 5686 5683 5680 5677 5673 5670 5667 5664 5661 5658 5655 5652 5649 5645 5642 5639 5635 5632 5629 5625 5622 5619